N7NKE Weather Reports


Display with metric or nautical units.
time (UTC)temp
F
wind
direction
speed
MPH
gust
MPH
rain 1hr
in
rain 24hr
in
rain mn
in
humidity
%
barometer
mb
20260509103005 49 0 0.0 1.0 0.00 0.00 0.00 89 1021.7
20260509102505 49 228 0.0 2.0 0.00 0.00 0.00 89 1021.7
20260509102005 49 222 1.0 1.0 0.00 0.00 0.00 89 1021.7
20260509101505 49 0 1.0 2.0 0.00 0.00 0.00 89 1021.7
20260509101005 49 359 1.0 2.0 0.00 0.00 0.00 89 1021.6
20260509100505 49 0 1.0 1.0 0.00 0.00 0.00 88 1021.6
20260509100006 49 0 0.0 1.0 0.00 0.00 0.00 88 1021.8
20260509095505 49 0 0.0 2.0 0.00 0.00 0.00 88 1021.8
20260509095005 49 0 0.0 2.0 0.00 0.00 0.00 88 1021.8
20260509094506 49 0 1.0 2.0 0.00 0.00 0.00 88 1021.8
20260509094005 50 0 0.0 0.0 0.00 0.00 0.00 88 1021.8
20260509093505 50 0 0.0 2.0 0.00 0.00 0.00 88 1021.7
20260509093006 50 0 0.0 2.0 0.00 0.00 0.00 88 1021.8
20260509092506 50 0 0.0 1.0 0.00 0.00 0.00 88 1021.8
20260509092006 50 0 1.0 2.0 0.00 0.00 0.00 88 1021.8
20260509091506 50 223 0.0 2.0 0.00 0.00 0.00 87 1021.9
20260509091005 51 358 0.0 2.0 0.00 0.00 0.00 87 1022.0
20260509090506 51 221 1.0 3.0 0.00 0.00 0.00 87 1022.0
20260509090005 51 165 2.0 3.0 0.00 0.00 0.00 87 1022.1
20260509085505 51 263 1.0 2.0 0.00 0.00 0.00 87 1022.1
20260509085005 51 352 1.0 2.0 0.00 0.00 0.00 86 1022.1
20260509084506 51 359 0.0 1.0 0.00 0.00 0.00 86 1022.0
20260509084006 52 0 0.0 2.0 0.00 0.00 0.00 86 1022.1
20260509083505 52 0 0.0 2.0 0.00 0.00 0.00 86 1022.2
20260509083005 52 236 0.0 2.0 0.00 0.00 0.00 85 1022.3
20260509082505 52 0 0.0 2.0 0.00 0.00 0.00 85 1022.3
20260509081505 53 0 0.0 2.0 0.00 0.00 0.00 84 1022.4
20260509081005 53 227 0.0 1.0 0.00 0.00 0.00 84 1022.3
20260509080505 53 302 1.0 2.0 0.00 0.00 0.00 84 1022.4
20260509075505 54 181 0.0 2.0 0.00 0.00 0.00 84 1022.4
20260509075005 54 170 1.0 2.0 0.00 0.00 0.00 84 1022.4
20260509074506 53 191 1.0 2.0 0.00 0.00 0.00 84 1022.4
20260509074004 53 253 1.0 2.0 0.00 0.00 0.00 85 1022.4
20260509073505 53 259 1.0 2.0 0.00 0.00 0.00 85 1022.5
20260509073005 53 335 1.0 2.0 0.00 0.00 0.00 85 1022.5
20260509072005 53 2 0.0 2.0 0.00 0.00 0.00 84 1022.6
20260509071506 53 22 0.0 1.0 0.00 0.00 0.00 84 1022.6
20260509071005 54 21 1.0 2.0 0.00 0.00 0.00 84 1022.5
20260509070505 54 76 1.0 2.0 0.00 0.00 0.00 83 1022.6
20260509070006 54 32 1.0 2.0 0.00 0.00 0.00 82 1022.5
20260509064505 55 12 1.0 2.0 0.00 0.00 0.00 80 1022.5
20260509064005 55 0 0.0 2.0 0.00 0.00 0.00 79 1022.4
20260509063006 56 25 1.0 3.0 0.00 0.00 0.00 79 1022.5
20260509062505 56 320 0.0 2.0 0.00 0.00 0.00 78 1022.4
20260509062005 56 280 0.0 2.0 0.00 0.00 0.00 78 1022.4
20260509061006 57 317 1.0 2.0 0.00 0.00 0.00 77 1022.3
20260509060505 57 327 2.0 3.0 0.00 0.00 0.00 76 1022.2
20260509060006 57 319 1.0 5.0 0.00 0.00 0.00 76 1022.2
20260509055005 57 328 2.0 5.0 0.00 0.00 0.00 76 1022.1
20260509054004 57 324 2.0 6.0 0.00 0.00 0.00 76 1022.1
20260509053505 57 311 3.0 5.0 0.00 0.00 0.00 75 1022.1
20260509053006 57 317 3.0 6.0 0.00 0.00 0.00 75 1022.1
20260509052505 58 323 3.0 6.0 0.00 0.00 0.00 75 1022.2
20260509052005 58 320 3.0 5.0 0.00 0.00 0.00 75 1022.2
20260509051505 58 324 3.0 5.0 0.00 0.00 0.00 74 1022.2
20260509051005 58 331 3.0 3.0 0.00 0.00 0.00 74 1022.1
20260509050505 58 327 2.0 5.0 0.00 0.00 0.00 73 1022.2
20260509050006 58 341 3.0 5.0 0.00 0.00 0.00 73 1022.1
20260509045505 59 326 3.0 5.0 0.00 0.00 0.00 73 1022.1
20260509045005 59 332 3.0 7.0 0.00 0.00 0.00 72 1022.1
20260509044505 59 329 3.0 5.0 0.00 0.00 0.00 72 1022.0
20260509043505 60 334 2.0 3.0 0.00 0.00 0.00 71 1022.0
20260509042505 60 325 2.0 3.0 0.00 0.00 0.00 70 1021.8
20260509042005 60 333 3.0 6.0 0.00 0.00 0.00 70 1021.7
20260509041506 60 333 3.0 6.0 0.00 0.00 0.00 70 1021.6
20260509040505 60 331 2.0 5.0 0.00 0.00 0.00 70 1021.5
20260509040006 61 325 2.0 2.0 0.00 0.00 0.00 70 1021.4
20260509035504 61 325 2.0 3.0 0.00 0.00 0.00 70 1021.4
20260509035005 61 335 2.0 3.0 0.00 0.00 0.00 69 1021.4
20260509034505 62 331 2.0 2.0 0.00 0.00 0.00 70 1021.4
20260509034005 62 345 2.0 3.0 0.00 0.00 0.00 68 1021.3
20260509033505 62 6 1.0 2.0 0.00 0.00 0.00 68 1021.4
20260509033006 62 17 3.0 3.0 0.00 0.00 0.00 66 1021.3
20260509032505 63 30 2.0 3.0 0.00 0.00 0.00 67 1021.3
20260509032005 63 28 1.0 2.0 0.00 0.00 0.00 66 1021.3
20260509031504 63 17 2.0 3.0 0.00 0.00 0.00 64 1021.2
20260509030504 63 325 2.0 3.0 0.00 0.00 0.00 64 1021.1
20260509030005 63 323 1.0 3.0 0.00 0.00 0.00 64 1021.0
20260509025505 63 331 2.0 6.0 0.00 0.00 0.00 63 1021.0
20260509025005 63 333 3.0 6.0 0.00 0.00 0.00 63 1020.9
20260509024004 64 330 2.0 6.0 0.00 0.00 0.00 62 1020.9
20260509023005 64 323 3.0 3.0 0.00 0.00 0.00 61 1020.9
20260509022504 65 349 2.0 5.0 0.00 0.00 0.00 60 1020.9
20260509022005 65 328 4.0 6.0 0.00 0.00 0.00 58 1020.9
20260509021505 66 332 3.0 8.0 0.00 0.00 0.00 58 1021.0
20260509021005 66 339 3.0 6.0 0.00 0.00 0.00 58 1020.9
20260509020505 66 325 3.0 5.0 0.00 0.00 0.00 57 1020.9
20260509020005 66 353 2.0 5.0 0.00 0.00 0.00 58 1020.9
20260509015505 66 337 3.0 6.0 0.00 0.00 0.00 57 1020.9
20260509015005 66 336 3.0 7.0 0.00 0.00 0.00 58 1020.9
20260509014505 66 330 3.0 6.0 0.00 0.00 0.00 58 1020.9
20260509014005 66 340 5.0 6.0 0.00 0.00 0.00 58 1020.9
20260509013504 66 331 3.0 5.0 0.00 0.00 0.00 58 1020.9
20260509013005 66 338 3.0 6.0 0.00 0.00 0.00 58 1020.8
20260509012505 66 333 2.0 5.0 0.00 0.00 0.00 59 1020.9
20260509012005 66 330 3.0 5.0 0.00 0.00 0.00 58 1020.9
20260509011505 65 335 3.0 5.0 0.00 0.00 0.00 57 1020.9
20260509011004 65 324 2.0 5.0 0.00 0.00 0.00 58 1021.0
20260509010005 66 336 2.0 3.0 0.00 0.00 0.00 56 1021.1
20260509005505 66 333 3.0 6.0 0.00 0.00 0.00 55 1021.1
20260509005005 66 358 2.0 6.0 0.00 0.00 0.00 56 1021.0
20260509004504 67 325 2.0 3.0 0.00 0.00 0.00 56 1021.0
20260509004005 67 328 2.0 3.0 0.00 0.00 0.00 56 1021.0
20260509003505 67 324 2.0 3.0 0.00 0.00 0.00 54 1020.9
20260509003005 67 327 2.0 3.0 0.00 0.00 0.00 52 1021.0
20260509002505 68 338 3.0 6.0 0.00 0.00 0.00 51 1020.9
20260509002005 68 1 1.0 2.0 0.00 0.00 0.00 53 1020.9
20260509001505 68 355 2.0 2.0 0.00 0.00 0.00 52 1021.0
20260509001005 68 358 1.0 2.0 0.00 0.00 0.00 53 1021.0
20260509000504 68 274 2.0 3.0 0.00 0.00 0.00 52 1021.0
20260509000005 68 280 2.0 5.0 0.00 0.00 0.00 52 1021.1
20260508235505 68 321 2.0 3.0 0.00 0.00 0.00 53 1021.1
20260508234505 67 251 2.0 3.0 0.00 0.00 0.00 51 1021.1
20260508234005 67 270 1.0 2.0 0.00 0.00 0.00 52 1021.2
20260508233505 67 316 1.0 1.0 0.00 0.00 0.00 53 1021.2
20260508233005 67 85 1.0 2.0 0.00 0.00 0.00 51 1021.2
20260508232505 67 11 1.0 2.0 0.00 0.00 0.00 53 1021.2
20260508231505 67 0 2.0 5.0 0.00 0.00 0.00 53 1021.2
20260508231005 67 17 2.0 5.0 0.00 0.00 0.00 51 1021.2
20260508230505 68 70 2.0 7.0 0.00 0.00 0.00 52 1021.2
20260508230006 68 346 2.0 3.0 0.00 0.00 0.00 51 1021.1
20260508225504 68 6 1.0 3.0 0.00 0.00 0.00 53 1021.1
20260508225005 68 2 3.0 6.0 0.00 0.00 0.00 53 1021.1
20260508224505 67 331 2.0 5.0 0.00 0.00 0.00 52 1021.1
20260508224005 67 37 3.0 5.0 0.00 0.00 0.00 53 1021.1
20260508223005 67 28 3.0 5.0 0.00 0.00 0.00 52 1021.2
20260508222505 67 82 3.0 8.0 0.00 0.00 0.00 53 1021.2
20260508222005 67 57 3.0 5.0 0.00 0.00 0.00 52 1021.2
20260508221005 67 65 3.0 8.0 0.00 0.00 0.00 53 1021.3
20260508220505 67 1 2.0 8.0 0.00 0.00 0.00 54 1021.3
20260508220005 66 50 1.0 7.0 0.00 0.00 0.00 56 1021.3
20260508214504 65 71 5.0 9.0 0.00 0.00 0.00 53 1021.3
20260508214005 65 71 4.0 8.0 0.00 0.00 0.00 56 1021.3
20260508213505 65 104 4.0 8.0 0.00 0.00 0.00 54 1021.3
20260508213005 65 88 3.0 9.0 0.00 0.00 0.00 57 1021.4
20260508212505 65 2 2.0 6.0 0.00 0.00 0.00 54 1021.4
20260508212004 65 50 3.0 10.0 0.00 0.00 0.00 56 1021.4
20260508211505 65 278 1.0 2.0 0.00 0.00 0.00 54 1021.3
20260508211005 65 47 4.0 8.0 0.00 0.00 0.00 56 1021.3
20260508210504 64 150 3.0 6.0 0.00 0.00 0.00 55 1021.3
20260508210005 64 93 3.0 7.0 0.00 0.00 0.00 55 1021.4
20260508205505 64 338 2.0 5.0 0.00 0.00 0.00 57 1021.4
20260508205005 64 15 2.0 3.0 0.00 0.00 0.00 56 1021.4
20260508204505 64 113 3.0 6.0 0.00 0.00 0.00 56 1021.3
20260508204005 63 86 2.0 6.0 0.00 0.00 0.00 56 1021.4
20260508203006 63 113 3.0 8.0 0.00 0.00 0.00 59 1021.3
20260508202504 63 122 3.0 8.0 0.00 0.00 0.00 59 1021.4
20260508202004 64 311 2.0 5.0 0.00 0.00 0.00 56 1021.4
20260508201506 64 206 2.0 8.0 0.00 0.00 0.00 58 1021.4
20260508201005 62 195 2.0 7.0 0.00 0.00 0.00 58 1021.4
20260508200505 62 121 5.0 8.0 0.00 0.00 0.00 59 1021.4
20260508200005 61 93 2.0 5.0 0.00 0.00 0.00 61 1021.5
20260508195505 61 228 1.0 2.0 0.00 0.00 0.00 62 1021.5
20260508195005 60 22 1.0 2.0 0.00 0.00 0.00 63 1021.6
20260508194505 60 319 2.0 3.0 0.00 0.00 0.00 63 1021.6
20260508193504 60 6 3.0 7.0 0.00 0.00 0.00 64 1021.6
20260508193006 61 19 2.0 7.0 0.00 0.00 0.00 62 1021.5
20260508192505 61 19 3.0 6.0 0.00 0.00 0.00 63 1021.6
20260508191505 59 24 2.0 6.0 0.00 0.00 0.00 65 1021.6
20260508191004 59 328 3.0 5.0 0.00 0.00 0.00 64 1021.5
20260508190505 59 326 3.0 5.0 0.00 0.00 0.00 64 1021.5
20260508190005 59 317 4.0 7.0 0.00 0.00 0.00 64 1021.6
20260508185504 59 330 2.0 6.0 0.00 0.00 0.00 66 1021.6
20260508185005 59 19 3.0 8.0 0.00 0.00 0.00 65 1021.6
20260508184505 59 340 2.0 5.0 0.00 0.00 0.00 65 1021.7
20260508184005 58 355 3.0 6.0 0.00 0.00 0.00 65 1021.7
20260508183505 58 327 4.0 6.0 0.00 0.00 0.00 66 1021.8
20260508183005 58 328 3.0 5.0 0.00 0.00 0.00 65 1021.7
20260508182504 59 5 1.0 2.0 0.00 0.00 0.00 64 1021.7
20260508182005 59 44 1.0 6.0 0.00 0.00 0.00 62 1021.7
20260508181005 60 139 3.0 10.0 0.00 0.00 0.00 61 1021.6
20260508180505 59 171 6.0 10.0 0.00 0.00 0.00 61 1021.5
20260508180005 59 173 1.0 3.0 0.00 0.00 0.00 64 1021.3
20260508175505 59 136 2.0 8.0 0.00 0.00 0.00 61 1021.3
20260508174505 59 47 2.0 7.0 0.00 0.00 0.00 63 1021.3
20260508173504 60 129 5.0 10.0 0.00 0.00 0.00 62 1021.3
20260508173004 59 174 4.0 8.0 0.00 0.00 0.00 61 1021.2
20260508172504 59 111 3.0 8.0 0.00 0.00 0.00 62 1021.2
20260508171005 59 205 4.0 7.0 0.00 0.00 0.00 65 1021.1
20260508170504 58 148 3.0 7.0 0.00 0.00 0.00 67 1021.1
20260508170005 58 42 5.0 8.0 0.00 0.00 0.00 67 1021.2
20260508165505 57 174 6.0 10.0 0.00 0.00 0.00 68 1021.2
20260508165005 56 208 4.0 8.0 0.00 0.00 0.00 68 1021.2
20260508164505 56 163 4.0 7.0 0.00 0.00 0.00 67 1021.1
20260508164004 57 176 2.0 7.0 0.00 0.00 0.00 67 1021.1
20260508163504 56 171 4.0 7.0 0.00 0.00 0.00 71 1021.1
20260508162505 55 54 1.0 3.0 0.00 0.00 0.00 70 1021.0
20260508162005 55 207 2.0 3.0 0.00 0.00 0.00 69 1020.9
20260508161505 55 207 3.0 6.0 0.00 0.00 0.00 72 1020.9
20260508161005 54 151 3.0 5.0 0.00 0.00 0.00 72 1020.8
20260508160505 54 203 3.0 5.0 0.00 0.00 0.00 72 1020.9
20260508160004 54 214 1.0 5.0 0.00 0.00 0.00 72 1020.9
20260508155505 54 132 2.0 5.0 0.00 0.00 0.00 72 1020.7
20260508155005 54 177 1.0 3.0 0.00 0.00 0.00 72 1021.0
20260508154504 54 91 2.0 3.0 0.00 0.00 0.00 73 1020.9
20260508154005 54 191 2.0 3.0 0.00 0.00 0.00 75 1020.7
20260508153504 53 105 1.0 3.0 0.00 0.00 0.00 75 1020.6
20260508153005 53 5 1.0 5.0 0.00 0.00 0.00 77 1020.6
20260508152505 53 0 1.0 2.0 0.00 0.00 0.00 78 1020.6
20260508152005 52 113 2.0 3.0 0.00 0.00 0.00 77 1020.6
20260508151005 52 55 1.0 3.0 0.00 0.00 0.00 81 1020.4
20260508150504 52 113 3.0 3.0 0.00 0.00 0.00 80 1020.4
20260508145505 51 4 1.0 2.0 0.00 0.00 0.00 83 1020.5
20260508145004 51 32 1.0 2.0 0.00 0.00 0.00 83 1020.4
20260508144505 51 89 1.0 2.0 0.00 0.00 0.00 85 1020.4
20260508144005 50 89 0.0 2.0 0.00 0.00 0.00 84 1020.4
20260508143505 50 89 0.0 2.0 0.00 0.00 0.00 84 1020.5
20260508143005 50 89 1.0 2.0 0.00 0.00 0.00 84 1020.3
20260508142504 50 89 0.0 1.0 0.00 0.00 0.00 84 1020.5
20260508141505 49 89 1.0 2.0 0.00 0.00 0.00 86 1020.4
20260508141005 49 89 0.0 1.0 0.00 0.00 0.00 87 1020.5
20260508140504 49 92 0.0 2.0 0.00 0.00 0.00 88 1020.4
20260508135505 48 203 1.0 2.0 0.00 0.00 0.00 89 1020.3
20260508135005 48 235 0.0 2.0 0.00 0.00 0.00 89 1020.2
20260508134505 48 237 0.0 2.0 0.00 0.00 0.00 90 1020.0
20260508134005 48 236 0.0 0.0 0.00 0.00 0.00 89 1019.8
20260508133504 48 236 0.0 2.0 0.00 0.00 0.00 89 1019.8
20260508132504 48 0 0.0 1.0 0.00 0.00 0.00 89 1019.6
20260508132005 48 0 0.0 0.0 0.00 0.00 0.00 89 1019.5
20260508131505 48 0 0.0 2.0 0.00 0.00 0.00 89 1019.4
20260508131004 48 0 1.0 1.0 0.00 0.00 0.00 89 1019.4
20260508130505 48 0 1.0 2.0 0.00 0.00 0.00 89 1019.3
20260508130005 48 0 1.0 2.0 0.00 0.00 0.00 89 1019.1
20260508125504 48 0 1.0 1.0 0.00 0.00 0.00 89 1019.1
20260508125005 48 0 1.0 1.0 0.00 0.00 0.00 89 1019.1
20260508124505 48 0 0.0 2.0 0.00 0.00 0.00 89 1018.9
20260508123505 49 180 0.0 2.0 0.00 0.00 0.00 89 1018.8
20260508122505 49 0 1.0 2.0 0.00 0.00 0.00 89 1018.7
20260508122005 49 0 1.0 2.0 0.00 0.00 0.00 88 1018.6
20260508121504 49 357 1.0 2.0 0.00 0.00 0.00 89 1018.6
20260508121004 49 249 0.0 2.0 0.00 0.00 0.00 89 1018.6
20260508120505 49 248 0.0 2.0 0.00 0.00 0.00 89 1018.5
20260508120005 50 249 1.0 2.0 0.00 0.00 0.00 89 1018.4
20260508115504 50 249 0.0 1.0 0.00 0.00 0.00 89 1018.5
20260508115004 49 249 0.0 2.0 0.00 0.00 0.00 88 1018.5
20260508114505 49 317 1.0 2.0 0.00 0.00 0.00 88 1018.4
20260508114005 49 276 0.0 2.0 0.00 0.00 0.00 88 1018.4
20260508113504 49 354 0.0 2.0 0.00 0.00 0.00 87 1018.4
20260508113006 49 0 0.0 2.0 0.00 0.00 0.00 87 1018.3
20260508112504 49 248 0.0 2.0 0.00 0.00 0.00 87 1018.3
20260508112004 49 249 0.0 1.0 0.00 0.00 0.00 87 1018.3
20260508111005 49 249 0.0 2.0 0.00 0.00 0.00 87 1018.0
20260508110505 50 249 0.0 2.0 0.00 0.00 0.00 87 1017.9
20260508110005 50 249 0.0 1.0 0.00 0.00 0.00 87 1017.9
20260508105504 50 250 0.0 1.0 0.00 0.00 0.00 87 1017.9
20260508105005 50 248 0.0 0.0 0.00 0.00 0.00 87 1017.8
20260508104505 50 248 0.0 0.0 0.00 0.00 0.00 87 1017.8
20260508104004 50 248 0.0 0.0 0.00 0.00 0.00 87 1017.8
20260508103504 50 248 0.0 2.0 0.00 0.00 0.00 87 1017.7